Location: Boursonne
(49.2024°N, 3.0468°E)
Time: 21:34:44
(UTC+00:00)

Cosmos 2366 rocket - Pass Details

Date: 03 March 2021
Orbit: 954 x 998 km, 82.9° (Epoch: 14 April)

Event Time Altitude Azimuth Distance (km) Brightness Sun altitude
Rises 20:06:20 0° 196° (SSW) 3,683 7.0 -25.2°
Reaches altitude 10° 20:08:51 10° 199° (SSW) 2,744 6.3 -25.6°
Maximum altitude 20:15:08 67° 282° (WNW) 1,075 4.3 -26.6°
Drops below altitude 10° 20:21:29 10° 5° (N) 2,778 6.6 -27.5°
Sets 20:24:04 0° 8° (N) 3,732 7.2 -27.9°
